| time (UTC) | temp F | wind direction | speed MPH | gust MPH | rain 1hr in | rain 24hr in | rain mn in | humidity % | barometer mb |
| 20260904095019 | 66 | 0.0 | 0.0 | 0.00 | 0.10 | 0.00 | 100 | 1012.6 | |
| 20260904094019 | 66 | 0.0 | 0.0 | 0.00 | 0.13 | 0.00 | 100 | 1012.5 | |
| 20260904093019 | 66 | 0.0 | 0.0 | 0.00 | 0.16 | 0.00 | 100 | 1012.7 | |
| 20260904092444 | 66 | 0.0 | 0.0 | 0.00 | 0.18 | 0.00 | 100 | 1012.6 | |
| 20260904091019 | 66 | 0.0 | 0.0 | 0.00 | 0.20 | 0.00 | 100 | 1012.5 | |
| 20260904090019 | 67 | 0.0 | 0.0 | 0.00 | 0.21 | 0.00 | 100 | 1012.5 | |
| 20260904085019 | 67 | 0.0 | 0.0 | 0.00 | 0.24 | 0.00 | 100 | 1012.6 | |
| 20260904084019 | 67 | 0.0 | 1.0 | 0.00 | 0.30 | 0.00 | 100 | 1012.8 | |
| 20260904083019 | 67 | 0.0 | 0.0 | 0.00 | 0.30 | 0.00 | 100 | 1012.7 | |
| 20260904082019 | 67 | 0.0 | 0.0 | 0.00 | 0.30 | 0.00 | 100 | 1012.6 | |
| 20260904081232 | 66 | 0.0 | 0.0 | 0.00 | 0.30 | 0.00 | 100 | 1012.7 | |
| 20260904080019 | 66 | 0.0 | 0.0 | 0.00 | 0.30 | 0.00 | 100 | 1012.6 | |
| 20260904075019 | 66 | 0.0 | 0.0 | 0.00 | 0.31 | 0.00 | 100 | 1012.4 | |
| 20260904074019 | 66 | 0.0 | 0.0 | 0.00 | 0.31 | 0.00 | 100 | 1012.4 | |
| 20260904073019 | 66 | 0.0 | 0.0 | 0.00 | 0.31 | 0.00 | 100 | 1012.2 | |
| 20260904072019 | 66 | 0.0 | 0.0 | 0.00 | 0.33 | 0.00 | 100 | 1012.0 | |
| 20260904071019 | 66 | 0.0 | 0.0 | 0.00 | 0.41 | 0.00 | 100 | 1012.0 | |
| 20260904070019 | 66 | 0.0 | 0.0 | 0.00 | 0.42 | 0.00 | 100 | 1011.7 | |
| 20260904065230 | 66 | 0.0 | 0.0 | 0.00 | 0.43 | 0.00 | 100 | 1011.7 | |
| 20260904064020 | 66 | 0.0 | 0.0 | 0.00 | 0.43 | 0.00 | 100 | 1011.4 | |
| 20260904063019 | 66 | 0.0 | 0.0 | 0.00 | 0.43 | 0.00 | 100 | 1011.3 | |
| 20260904062019 | 66 | 0.0 | 0.0 | 0.00 | 0.43 | 0.00 | 100 | 1011.4 | |
| 20260904061019 | 67 | 0.0 | 0.0 | 0.00 | 0.43 | 0.00 | 100 | 1010.9 | |
| 20260904060019 | 67 | 0.0 | 0.0 | 0.00 | 0.43 | 0.00 | 100 | 1011.0 | |
| 20260904055019 | 67 | 0.0 | 3.0 | 0.00 | 0.43 | 0.00 | 100 | 1010.8 | |
| 20260904054019 | 67 | 315 | 1.0 | 5.0 | 0.00 | 0.43 | 0.00 | 100 | 1011.0 |
| 20260904053019 | 67 | 0.0 | 0.0 | 0.00 | 0.43 | 0.00 | 100 | 1011.1 | |
| 20260904052019 | 68 | 0.0 | 2.0 | 0.00 | 0.43 | 0.00 | 100 | 1011.1 | |
| 20260904051512 | 67 | 315 | 0.0 | 2.0 | 0.00 | 0.43 | 0.00 | 100 | 1010.3 |
| 20260904050520 | 68 | 0.0 | 0.0 | 0.00 | 0.43 | 0.00 | 100 | 1011.2 | |
| 20260904045520 | 68 | 0.0 | 1.0 | 0.00 | 0.43 | 0.00 | 100 | 1011.0 | |
| 20260904044520 | 68 | 0.0 | 2.0 | 0.00 | 0.43 | 0.00 | 100 | 1011.2 | |
| 20260904043943 | 69 | 315 | 1.0 | 3.0 | 0.00 | 0.43 | 0.00 | 100 | 1011.4 |
| 20260904042731 | 69 | 0.0 | 1.0 | 0.01 | 0.43 | 0.00 | 100 | 1011.7 | |
| 20260904041520 | 70 | 315 | 1.0 | 3.0 | 0.01 | 0.43 | 0.00 | 100 | 1011.8 |
| 20260904040946 | 70 | 315 | 1.0 | 3.0 | 0.01 | 0.43 | 0.00 | 100 | 1012.1 |
| 20260904035519 | 72 | 0.0 | 2.0 | 0.01 | 0.43 | 0.43 | 100 | 1012.3 | |
| 20260904034519 | 73 | 0.0 | 3.0 | 0.01 | 0.43 | 0.43 | 100 | 1012.4 | |
| 20260904033944 | 73 | 315 | 3.0 | 6.0 | 0.01 | 0.43 | 0.43 | 100 | 1012.6 |
| 20260904032519 | 73 | 315 | 3.0 | 7.0 | 0.00 | 0.42 | 0.42 | 100 | 1013.0 |
| 20260904031519 | 72 | 315 | 3.0 | 11.0 | 0.00 | 0.42 | 0.42 | 100 | 1013.1 |
| 20260904030519 | 73 | 225 | 4.0 | 8.0 | 0.00 | 0.42 | 0.42 | 100 | 1012.9 |
| 20260904025519 | 73 | 225 | 1.0 | 2.0 | 0.00 | 0.42 | 0.42 | 100 | 1013.1 |
| 20260904024519 | 73 | 0.0 | 0.0 | 0.01 | 0.42 | 0.42 | 100 | 1013.1 | |
| 20260904023519 | 74 | 0.0 | 0.0 | 0.02 | 0.42 | 0.42 | 100 | 1013.2 | |
| 20260904022520 | 74 | 0.0 | 1.0 | 0.02 | 0.42 | 0.42 | 100 | 1013.1 | |
| 20260904021519 | 74 | 0.0 | 2.0 | 0.02 | 0.42 | 0.42 | 100 | 1012.7 | |
| 20260904020519 | 74 | 0.0 | 0.0 | 0.02 | 0.42 | 0.42 | 100 | 1012.4 | |
| 20260904015520 | 74 | 0.0 | 0.0 | 0.02 | 0.42 | 0.42 | 100 | 1012.6 | |
| 20260904014519 | 74 | 225 | 1.0 | 2.0 | 0.01 | 0.41 | 0.41 | 100 | 1012.7 |
| 20260904013519 | 74 | 0.0 | 0.0 | 0.00 | 0.40 | 0.40 | 100 | 1012.4 | |
| 20260904012733 | 74 | 0.0 | 0.0 | 0.00 | 0.40 | 0.40 | 100 | 1012.4 | |
| 20260904011519 | 74 | 0.0 | 0.0 | 0.00 | 0.40 | 0.40 | 100 | 1012.3 | |
| 20260904010730 | 74 | 0.0 | 0.0 | 0.00 | 0.40 | 0.40 | 100 | 1012.2 | |
| 20260904005519 | 75 | 0.0 | 0.0 | 0.00 | 0.40 | 0.40 | 100 | 1012.2 | |
| 20260904004521 | 76 | 225 | 1.0 | 3.0 | 0.00 | 0.40 | 0.40 | 100 | 1012.2 |
| 20260904003519 | 76 | 0.0 | 0.0 | 0.00 | 0.40 | 0.40 | 100 | 1012.3 | |
| 20260904002519 | 77 | 0.0 | 0.0 | 0.00 | 0.40 | 0.40 | 100 | 1012.1 | |
| 20260904001519 | 77 | 0.0 | 0.0 | 0.00 | 0.40 | 0.40 | 100 | 1012.3 | |
| 20260904000519 | 78 | 0.0 | 0.0 | 0.00 | 0.40 | 0.40 | 100 | 1012.4 | |
| 20260903235519 | 78 | 0.0 | 0.0 | 0.00 | 0.40 | 0.40 | 100 | 1012.5 | |
| 20260903234732 | 79 | 0.0 | 0.0 | 0.00 | 0.40 | 0.40 | 100 | 1012.4 | |
| 20260903233519 | 80 | 0.0 | 0.0 | 0.00 | 0.40 | 0.40 | 100 | 1012.2 | |
| 20260903232520 | 80 | 0.0 | 0.0 | 0.00 | 0.40 | 0.40 | 100 | 1011.9 | |
| 20260903231943 | 81 | 0.0 | 0.0 | 0.00 | 0.40 | 0.40 | 100 | 1011.9 | |
| 20260903230519 | 81 | 0.0 | 0.0 | 0.00 | 0.40 | 0.40 | 100 | 1012.1 | |
| 20260903225520 | 82 | 0.0 | 0.0 | 0.00 | 0.40 | 0.40 | 100 | 1012.2 | |
| 20260903224946 | 82 | 0.0 | 0.0 | 0.00 | 0.40 | 0.40 | 100 | 1012.0 | |
| 20260903223520 | 83 | 0.0 | 0.0 | 0.00 | 0.40 | 0.40 | 4 | 1012.0 | |
| 20260903222519 | 84 | 0.0 | 0.0 | 0.00 | 0.40 | 0.40 | 16 | 1012.0 | |
| 20260903221731 | 84 | 0.0 | 1.0 | 0.00 | 0.40 | 0.40 | 29 | 1011.6 | |
| 20260903220520 | 84 | 0.0 | 1.0 | 0.00 | 0.40 | 0.40 | 39 | 1011.7 | |
| 20260903215519 | 85 | 225 | 1.0 | 3.0 | 0.00 | 0.40 | 0.40 | 50 | 1011.8 |
| 20260903214519 | 85 | 225 | 1.0 | 3.0 | 0.00 | 0.40 | 0.40 | 50 | 1011.9 |
| 20260903213520 | 85 | 225 | 2.0 | 5.0 | 0.00 | 0.40 | 0.40 | 57 | 1011.8 |
| 20260903212520 | 86 | 225 | 1.0 | 3.0 | 0.00 | 0.40 | 0.40 | 54 | 1011.8 |
| 20260903211520 | 85 | 225 | 1.0 | 5.0 | 0.00 | 0.40 | 0.40 | 49 | 1011.8 |
| 20260903210519 | 85 | 225 | 2.0 | 5.0 | 0.00 | 0.40 | 0.40 | 49 | 1011.7 |
| 20260903205519 | 85 | 225 | 4.0 | 10.0 | 0.00 | 0.40 | 0.40 | 54 | 1011.6 |
| 20260903204520 | 85 | 203 | 1.0 | 5.0 | 0.00 | 0.40 | 0.40 | 50 | 1011.7 |
| 20260903203519 | 85 | 203 | 3.0 | 5.0 | 0.00 | 0.40 | 0.40 | 51 | 1011.9 |
| 20260903202519 | 85 | 203 | 2.0 | 5.0 | 0.00 | 0.40 | 0.40 | 49 | 1011.9 |
| 20260903201520 | 85 | 203 | 3.0 | 6.0 | 0.00 | 0.40 | 0.40 | 48 | 1011.9 |
| 20260903200520 | 85 | 203 | 4.0 | 9.0 | 0.00 | 0.40 | 0.40 | 49 | 1012.0 |
| 20260903195729 | 86 | 203 | 3.0 | 7.0 | 0.00 | 0.40 | 0.40 | 54 | 1012.0 |
| 20260903194520 | 86 | 203 | 4.0 | 7.0 | 0.00 | 0.40 | 0.40 | 56 | 1012.1 |
| 20260903193520 | 86 | 225 | 3.0 | 8.0 | 0.00 | 0.40 | 0.40 | 55 | 1012.2 |
| 20260903192731 | 86 | 158 | 3.0 | 7.0 | 0.00 | 0.40 | 0.40 | 60 | 1012.3 |
| 20260903191520 | 87 | 293 | 4.0 | 10.0 | 0.00 | 0.40 | 0.40 | 61 | 1012.4 |
| 20260903190519 | 86 | 293 | 5.0 | 10.0 | 0.00 | 0.40 | 0.40 | 61 | 1012.5 |
| 20260903185520 | 85 | 270 | 5.0 | 8.0 | 0.00 | 0.40 | 0.40 | 62 | 1012.8 |
| 20260903184520 | 85 | 270 | 4.0 | 7.0 | 0.00 | 0.40 | 0.40 | 61 | 1013.0 |
| 20260903183520 | 85 | 315 | 4.0 | 9.0 | 0.00 | 0.40 | 0.40 | 57 | 1013.2 |
| 20260903182520 | 84 | 248 | 4.0 | 9.0 | 0.00 | 0.40 | 0.40 | 52 | 1013.2 |
| 20260903181520 | 84 | 225 | 4.0 | 8.0 | 0.00 | 0.40 | 0.40 | 55 | 1013.3 |
| 20260903180734 | 83 | 225 | 4.0 | 7.0 | 0.00 | 0.40 | 0.40 | 50 | 1013.5 |
| 20260903175520 | 83 | 158 | 3.0 | 7.0 | 0.00 | 0.40 | 0.40 | 50 | 1013.5 |
| 20260903174731 | 83 | 225 | 4.0 | 9.0 | 0.00 | 0.40 | 0.40 | 51 | 1013.8 |
| 20260903173520 | 83 | 203 | 4.0 | 7.0 | 0.00 | 0.41 | 0.40 | 53 | 1013.9 |
| 20260903172520 | 83 | 225 | 5.0 | 8.0 | 0.00 | 0.41 | 0.40 | 55 | 1013.8 |
| 20260903171520 | 82 | 225 | 4.0 | 10.0 | 0.00 | 0.41 | 0.40 | 46 | 1013.9 |
| 20260903170520 | 81 | 293 | 3.0 | 8.0 | 0.00 | 0.42 | 0.40 | 38 | 1013.9 |
| 20260903165519 | 81 | 293 | 4.0 | 9.0 | 0.00 | 0.42 | 0.40 | 21 | 1014.1 |
| 20260903164520 | 80 | 270 | 5.0 | 10.0 | 0.00 | 0.43 | 0.40 | 27 | 1014.4 |
| 20260903163520 | 80 | 203 | 5.0 | 11.0 | 0.00 | 0.45 | 0.40 | 28 | 1014.6 |
| 20260903162734 | 79 | 225 | 5.0 | 10.0 | 0.00 | 0.47 | 0.40 | 29 | 1014.7 |
| 20260903161519 | 79 | 248 | 5.0 | 9.0 | 0.00 | 0.49 | 0.40 | 27 | 1014.9 |
| 20260903160730 | 79 | 248 | 4.0 | 9.0 | 0.00 | 0.50 | 0.40 | 12 | 1015.1 |
| 20260903155520 | 78 | 270 | 4.0 | 8.0 | 0.00 | 0.52 | 0.40 | 100 | 1015.0 |
| 20260903154520 | 76 | 293 | 3.0 | 8.0 | 0.00 | 0.55 | 0.40 | 100 | 1015.2 |
| 20260903153520 | 75 | 293 | 4.0 | 8.0 | 0.00 | 0.56 | 0.40 | 100 | 1015.2 |
| 20260903152836 | 73 | 270 | 4.0 | 9.0 | 0.00 | 0.74 | 0.40 | 100 | 1015.4 |
| 20260903152623 | 71 | 270 | 3.0 | 8.0 | 0.00 | 0.90 | 0.40 | 100 | 1015.3 |
| 20260903150520 | 71 | 270 | 4.0 | 11.0 | 0.00 | 0.91 | 0.40 | 100 | 1015.4 |
| 20260903145520 | 70 | 270 | 4.0 | 7.0 | 0.00 | 0.91 | 0.40 | 100 | 1015.3 |
| 20260903144520 | 70 | 248 | 2.0 | 6.0 | 0.00 | 0.91 | 0.40 | 100 | 1015.0 |
| 20260903143520 | 70 | 270 | 2.0 | 6.0 | 0.00 | 0.91 | 0.40 | 100 | 1015.0 |
| 20260903142730 | 70 | 270 | 1.0 | 6.0 | 0.00 | 0.91 | 0.40 | 100 | 1015.4 |
| 20260903141731 | 70 | 270 | 3.0 | 10.0 | 0.00 | 0.91 | 0.40 | 100 | 1016.0 |
| 20260903140732 | 71 | 203 | 3.0 | 5.0 | 0.00 | 0.91 | 0.40 | 100 | 1015.8 |
| 20260903135946 | 71 | 293 | 2.0 | 5.0 | 0.00 | 0.91 | 0.40 | 100 | 1016.0 |
| 20260903134947 | 70 | 293 | 2.0 | 5.0 | 0.00 | 0.91 | 0.40 | 100 | 1016.1 |
| 20260903133520 | 70 | 315 | 5.0 | 11.0 | 0.00 | 0.91 | 0.40 | 100 | 1016.7 |
| 20260903132520 | 70 | 248 | 2.0 | 6.0 | 0.00 | 0.91 | 0.40 | 100 | 1016.4 |
| 20260903131520 | 70 | 248 | 3.0 | 6.0 | 0.00 | 0.91 | 0.40 | 100 | 1015.5 |
| 20260903130520 | 70 | 248 | 1.0 | 5.0 | 0.00 | 0.91 | 0.40 | 100 | 1015.4 |
| 20260903125520 | 70 | 248 | 3.0 | 8.0 | 0.00 | 0.91 | 0.40 | 100 | 1015.5 |
| 20260903124520 | 70 | 180 | 2.0 | 6.0 | 0.00 | 0.91 | 0.40 | 100 | 1015.5 |
| 20260903123520 | 69 | 180 | 1.0 | 4.0 | 0.00 | 0.91 | 0.40 | 100 | 1015.6 |
| 20260903122731 | 70 | 180 | 1.0 | 5.0 | 0.00 | 0.91 | 0.40 | 100 | 1015.7 |
| 20260903121520 | 69 | 180 | 1.0 | 3.0 | 0.00 | 0.91 | 0.40 | 100 | 1015.5 |
| 20260903120520 | 69 | 180 | 2.0 | 5.0 | 0.00 | 0.91 | 0.40 | 100 | 1015.5 |
| 20260903115520 | 68 | 0.0 | 0.0 | 0.00 | 0.91 | 0.40 | 100 | 1015.4 | |
| 20260903114730 | 68 | 180 | 2.0 | 5.0 | 0.00 | 0.91 | 0.40 | 100 | 1015.1 |
| 20260903113731 | 68 | 225 | 1.0 | 3.0 | 0.01 | 0.91 | 0.40 | 100 | 1015.0 |
| 20260903112520 | 67 | 203 | 1.0 | 3.0 | 0.03 | 0.91 | 0.40 | 100 | 1015.0 |
| 20260903111520 | 67 | 203 | 2.0 | 6.0 | 0.04 | 0.91 | 0.40 | 100 | 1015.3 |
| 20260903110520 | 67 | 203 | 4.0 | 10.0 | 0.06 | 0.91 | 0.40 | 100 | 1015.3 |
| 20260903105520 | 67 | 113 | 1.0 | 5.0 | 0.07 | 0.91 | 0.40 | 100 | 1015.2 |
| 20260903104730 | 67 | 0.0 | 2.0 | 0.09 | 0.91 | 0.40 | 100 | 1015.5 | |
| 20260903103731 | 67 | 113 | 1.0 | 4.0 | 0.11 | 0.90 | 0.39 | 100 | 1015.3 |
| 20260903102520 | 67 | 0.0 | 2.0 | 0.11 | 0.88 | 0.37 | 100 | 1016.0 | |
| 20260903101520 | 67 | 113 | 1.0 | 4.0 | 0.12 | 0.87 | 0.36 | 100 | 1016.1 |
| 20260903100520 | 67 | 113 | 5.0 | 9.0 | 0.12 | 0.85 | 0.34 | 100 | 1015.5 |